Location: Ford County Road and Bridge Department
(37.7686°N, 99.9762°W)
Time: 13:28:30
(UTC+00:00)

Cosmos 1626 - Pass Details

Date: 18 January 2020
Orbit: 492 x 495 km, 82.5° (Epoch: 24 February)

Event Time Altitude Azimuth Distance (km) Brightness Sun altitude
Exits shadow 11:39:06 42° 113° (ESE) 722 3.3 -26.2°
Drops below altitude 10° 11:42:01 10° 156° (SSE) 1,686 5.2 -25.6°
Sets 11:44:10 0° 162° (SSE) 2,563 6.1 -25.2°
